Home > Weather > Willemstad > Past weeks

Flag for Curaçao Past Weather in Willemstad, Curaçao — Yesterday and Last 2 Weeks

Now
90 °F

Passing clouds.


Feels Like: 100 °F
Forecast: 82 / 90 °F
Wind: 14 mph from Southeast

Location: Hato Airport - Curacao

Current Time: Aug 26, 2016 at 10:01:53 AM

Latest Report: Aug 26, 2016 at 9:00 AM


Visibility: N/A

Pressure: 29.89 "Hg

Humidity: 63%

Dew Point: 75 °F

Location of WillemstadLocation

Past Weather in Willemstad — Graph

°F

Willemstad Temperature Yesterday

Maximum temperature yesterday: 95 °F (at 11:00 AM)
Minimum temperature yesterday: 82 °F (at 12:00 AM)
Average temperature yesterday: 86 °F

High & Low Weather Summary for the Past Weeks

 TemperatureHumidityPressure
High95 °F (Aug 25, 11:00 AM)89% (Aug 12, 10:00 PM)29.98 "Hg (Aug 12, 10:00 PM)
Low81 °F (Aug 18, 6:00 AM)47% (Aug 25, 11:00 AM)29.77 "Hg (Aug 24, 5:00 PM)
Average85 °F76%29.90 "Hg
* Reported Aug 11 9:00 AM — Aug 26 9:00 AM, Willemstad, Weather by CustomWeather, © 2016

Note: Actual official high and low records may vary slightly from our data, if they occured in-between our weather recording intervals... More about our weather records

Advertising

Willemstad Weather History for the Previous 24 Hours

Scroll right to see more
 ConditionsComfort  
Time TempWeatherWind HumidityBarometerVisibility
9:00 AM
Fri, Aug 26
90 °FPassing clouds.14 mph63%29.89 "HgN/A
8:00 AM86 °FPassing clouds.14 mph75%29.86 "HgN/A
7:00 AM82 °FPassing clouds.10 mph84%29.83 "HgN/A
6:00 AM82 °FPassing clouds.10 mph84%29.83 "HgN/A
5:00 AM82 °FPassing clouds.12 mph84%29.80 "HgN/A
3:00 AM82 °FPassing clouds.15 mph84%29.80 "HgN/A
2:00 AM82 °FPassing clouds.13 mph84%29.83 "HgN/A
1:00 AM84 °FPassing clouds.14 mph79%29.83 "HgN/A
12:00 AM84 °FPassing clouds.16 mph79%29.86 "HgN/A
11:00 PM
Thu, Aug 25
84 °FPassing clouds.14 mph79%29.86 "HgN/A
10:00 PM84 °FPassing clouds.13 mph79%29.86 "HgN/A
9:00 PM84 °FPassing clouds.14 mph79%29.83 "HgN/A
8:00 PM84 °FPassing clouds.17 mph79%29.80 "HgN/A
7:00 PM84 °FPassing clouds.13 mph84%29.77 "HgN/A
6:00 PM88 °FPassing clouds.16 mph66%29.77 "HgN/A
5:00 PM90 °FPassing clouds.15 mph67%29.77 "HgN/A
4:00 PM90 °FPassing clouds.15 mph71%29.77 "HgN/A
3:00 PM90 °FPassing clouds.15 mph71%29.77 "HgN/A
1:00 PM90 °FPassing clouds.16 mph71%29.83 "HgN/A
12:00 PM95 °FPassing clouds.16 mph47%29.83 "HgN/A
11:00 AM95 °FPassing clouds.14 mph47%29.86 "HgN/A
10:00 AM91 °FPassing clouds.16 mph63%29.86 "HgN/A
Weather by CustomWeather, © 2016

See weather overviewHow to use our weather pages